Weather History for Slayton, MN

Change the Weather History Date:

Wednesday, November 13, 2013

  Actual Average (KOTG) Record (KOTG)
Temperature  
Mean Temperature 38 °F -  
Max Temperature 55 °F 40 °F 78 °F (1999)
Min Temperature 22 °F 25 °F -6 °F (1986)
Degree Days  
Heating Degree Days 26    
Moisture  
Dew Point 25 °F    
Average Humidity 64    
Maximum Humidity 80    
Minimum Humidity 42    
Precipitation  
Precipitation 0.00 in - - ()
Sea Level Pressure  
Sea Level Pressure 30.06 in    
Wind  
Wind Speed 18 mph (SSW)    
Max Wind Speed 30 mph    
Max Gust Speed 36 mph    
Visibility 10 miles    
Events      
Averages and records for this station are not official NWS values.
T = Trace of Precipitation, MM = Missing Value Source: NWS Daily Summary

Daily Weather History Graph

Daily Weather History Graph

Search for Another Location

Airport:

Trip Planner

Search our weather history database for the weather conditions in past years. The results will help you decide how hot, cold, wet, or windy it might be!

Date:

Astronomy

Nov. 13, 2013 Rise Set
Actual Time 7:15 AM CST 4:58 PM CST
Civil Twilight 6:44 AM CST 5:29 PM CST
Nautical Twilight 6:09 AM CST 6:04 PM CST
Astronomical Twilight 5:35 AM CST 6:38 PM CST
Moon 2:53 PM CST (11/13) 3:02 AM CST (11/13)
Length of Visible Light 10h 44m
Length of Day
9h 42m
Waxing Gibbous, 85% of the Moon is Illuminated
Nov 13
Waxing Gibbous
Nov 17
Full
Nov 25
Last Quarter
Dec 2
New
Dec 9
First Quarter

Hourly Weather History & Observations

Time (CST) Temp. Windchill Dew Point Humidity Pressure Visibility Wind Dir Wind Speed Gust Speed Precip Events Conditions
12:13 AM 23.7 °F 9.7 °F 13.1 °F 64% 30.39 in 10.0 mi SSW 18.4 mph - N/A   Clear
12:34 AM 23.2 °F 9.0 °F 12.7 °F 64% 30.38 in 10.0 mi SSW 18.4 mph - N/A   Clear
12:53 AM 22.8 °F 9.9 °F 13.1 °F 66% 30.37 in 10.0 mi SSW 15.0 mph - N/A   Clear
1:13 AM 22.1 °F 10.6 °F 13.1 °F 68% 30.36 in 10.0 mi SSW 11.5 mph - N/A   Clear
1:33 AM 22.6 °F 9.6 °F 13.8 °F 69% 30.34 in 10.0 mi SSW 15.0 mph - N/A   Clear
1:53 AM 23.2 °F 12.0 °F 14.0 °F 68% 30.34 in 10.0 mi SSW 11.5 mph - N/A   Clear
2:13 AM 23.9 °F 10.3 °F 14.0 °F 66% 30.32 in 10.0 mi SSW 17.3 mph - N/A   Clear
2:33 AM 23.7 °F 12.6 °F 14.4 °F 67% 30.31 in 10.0 mi South 11.5 mph 19.6 mph N/A   Clear
2:54 AM 24.4 °F 10.2 °F 14.7 °F 67% 30.29 in 10.0 mi SSW 19.6 mph 24.2 mph N/A   Clear
3:13 AM 24.8 °F 11.5 °F 14.9 °F 66% 30.28 in 10.0 mi SSW 17.3 mph 25.3 mph N/A   Clear
3:33 AM 25.3 °F 9.4 °F 15.6 °F 67% 30.26 in 10.0 mi SSW 26.5 mph 31.1 mph N/A   Clear
3:53 AM 24.8 °F 9.3 °F 15.6 °F 68% 30.24 in 10.0 mi SSW 24.2 mph 28.8 mph N/A   Clear
4:13 AM 24.6 °F 9.1 °F 15.8 °F 69% 30.22 in 10.0 mi SSW 24.2 mph 28.8 mph N/A   Clear
4:33 AM 24.8 °F 11.5 °F 16.2 °F 70% 30.22 in 10.0 mi SSW 17.3 mph - N/A   Clear
4:53 AM 25.2 °F 10.8 °F 16.3 °F 69% 30.21 in 10.0 mi South 20.7 mph 25.3 mph N/A   Clear
5:13 AM 25.2 °F 10.4 °F 16.7 °F 70% 30.20 in 10.0 mi SSW 21.9 mph 26.5 mph N/A   Clear
5:34 AM 24.8 °F 10.7 °F 16.7 °F 71% 30.19 in 10.0 mi SSW 19.6 mph 24.2 mph N/A   Clear
5:54 AM 24.8 °F 12.9 °F 17.2 °F 73% 30.19 in 10.0 mi South 13.8 mph 18.4 mph N/A   Clear
6:14 AM 24.8 °F 10.3 °F 18.0 °F 75% 30.17 in 10.0 mi SSW 20.7 mph 25.3 mph N/A   Clear
6:33 AM 25.2 °F 11.2 °F 17.6 °F 73% 30.17 in 10.0 mi SSW 19.6 mph 27.6 mph N/A   Clear
6:53 AM 25.2 °F 13.3 °F 17.6 °F 73% 30.15 in 10.0 mi South 13.8 mph - N/A   Clear
7:13 AM 25.2 °F 13.3 °F 18.1 °F 75% 30.14 in 10.0 mi South 13.8 mph 20.7 mph N/A   Clear
7:34 AM 25.5 °F 10.6 °F 18.3 °F 74% 30.11 in 10.0 mi SSW 23.0 mph 28.8 mph N/A   Clear
7:53 AM 26.4 °F 10.3 °F 19.2 °F 74% 30.10 in 10.0 mi SSW 28.8 mph - N/A   Clear
8:13 AM 27.0 °F 11.3 °F 19.6 °F 74% 30.10 in 5.0 mi SSW 27.6 mph 34.5 mph N/A   Haze
8:34 AM 28.4 °F 13.5 °F 20.7 °F 73% 30.10 in 7.0 mi SSW 26.5 mph 33.4 mph N/A   Clear
8:52 AM 28.8 °F 14.6 °F 21.2 °F 73% 30.10 in 4.0 mi SW 24.2 mph 34.5 mph N/A   Haze
9:13 AM 29.5 °F 15.0 °F 21.9 °F 73% 30.09 in 7.0 mi SSW 26.5 mph 33.4 mph N/A   Clear
9:34 AM 31.1 °F 18.6 °F 23.2 °F 72% 30.10 in 10.0 mi SW 20.7 mph 28.8 mph N/A   Clear
9:53 AM 32.7 °F 19.9 °F 24.8 °F 73% 30.08 in 10.0 mi SW 24.2 mph 31.1 mph N/A   Clear
10:13 AM 34.7 °F 23.1 °F 25.7 °F 70% 30.07 in 10.0 mi SSW 21.9 mph 29.9 mph N/A   Clear
10:33 AM 36.0 °F 23.9 °F 26.2 °F 68% 30.06 in 10.0 mi SSW 25.3 mph 31.1 mph N/A   Clear
10:53 AM 38.1 °F 27.6 °F 27.5 °F 66% 30.05 in 10.0 mi SSW 21.9 mph 27.6 mph N/A   Clear
11:14 AM 39.7 °F 28.8 °F 27.9 °F 63% 30.04 in 10.0 mi SW 26.5 mph - N/A   Clear
11:34 AM 41.7 °F 31.0 °F 28.9 °F 61% 30.02 in 10.0 mi SW 28.8 mph 32.2 mph N/A   Clear
11:53 AM 43.7 °F 33.9 °F 30.0 °F 59% 30.01 in 10.0 mi SW 27.6 mph 31.1 mph N/A   Clear
12:13 PM 45.1 °F 35.6 °F 30.4 °F 56% 30.00 in 10.0 mi SW 28.8 mph 35.7 mph N/A   Clear
12:34 PM 46.4 °F 37.9 °F 31.1 °F 55% 29.98 in 10.0 mi SW 25.3 mph 33.4 mph N/A   Clear
12:53 PM 47.7 °F - 31.5 °F 53% 29.98 in 10.0 mi SW 20.7 mph 32.2 mph N/A   Clear
1:13 PM 49.3 °F - 31.8 °F 51% 29.96 in 10.0 mi SW 29.9 mph 35.7 mph N/A   Clear
1:34 PM 50.9 °F - 31.8 °F 48% 29.96 in 10.0 mi SW 25.3 mph - N/A   Clear
1:53 PM 52.0 °F - 32.2 °F 47% 29.97 in 10.0 mi SW 12.7 mph 31.1 mph N/A   Clear
2:13 PM 52.9 °F - 32.0 °F 45% 29.97 in 10.0 mi WSW 15.0 mph 24.2 mph N/A   Clear
2:34 PM 54.5 °F - 32.0 °F 42% 29.98 in 10.0 mi WSW 12.7 mph 16.1 mph N/A   Clear
2:53 PM 55.0 °F - 32.0 °F 42% 29.97 in 10.0 mi SW 11.5 mph 17.3 mph N/A   Clear
3:14 PM 54.5 °F - 32.0 °F 42% 29.96 in 10.0 mi SW 16.1 mph - N/A   Clear
3:34 PM 54.3 °F - 32.0 °F 43% 29.96 in 10.0 mi SW 17.3 mph 20.7 mph N/A   Clear
3:54 PM 53.8 °F - 32.0 °F 44% 29.96 in 10.0 mi SW 10.4 mph - N/A   Clear
4:14 PM 52.0 °F - 32.7 °F 48% 29.95 in 10.0 mi SW 15.0 mph - N/A   Clear
4:34 PM 49.8 °F - 33.1 °F 53% 29.95 in 10.0 mi SSW 10.4 mph - N/A   Clear
4:54 PM 47.3 °F - 32.9 °F 57% 29.94 in 10.0 mi SSW 15.0 mph - N/A   Clear
5:14 PM 45.1 °F 38.4 °F 32.4 °F 61% 29.94 in 10.0 mi SW 15.0 mph - N/A   Clear
5:34 PM 43.5 °F 37.1 °F 32.0 °F 64% 29.94 in 10.0 mi SSW 12.7 mph - N/A   Clear
5:53 PM 44.6 °F 38.4 °F 32.0 °F 61% 29.94 in 10.0 mi SW 12.7 mph - N/A   Clear
6:13 PM 44.1 °F 37.7 °F 31.6 °F 62% 29.95 in 10.0 mi SSW 12.7 mph - N/A   Clear
6:34 PM 44.6 °F 38.8 °F 31.1 °F 59% 29.94 in 10.0 mi South 11.5 mph - N/A   Clear
6:53 PM 44.2 °F 37.6 °F 30.7 °F 59% 29.94 in 10.0 mi South 13.8 mph 18.4 mph N/A   Clear
7:12 PM 44.1 °F 35.7 °F 30.2 °F 58% 29.92 in 10.0 mi SSW 20.7 mph - N/A   Clear
7:34 PM 42.6 °F 34.3 °F 30.4 °F 62% 29.92 in 10.0 mi SSW 18.4 mph - N/A   Clear
7:53 PM 42.1 °F 33.1 °F 30.2 °F 63% 29.92 in 10.0 mi SSW 20.7 mph 25.3 mph N/A   Clear
8:14 PM 41.5 °F 32.6 °F 30.7 °F 65% 29.91 in 10.0 mi SW 19.6 mph - N/A   Clear
8:34 PM 41.5 °F 33.2 °F 30.4 °F 65% 29.93 in 10.0 mi SW 17.3 mph 25.3 mph N/A   Clear
8:53 PM 40.6 °F 33.0 °F 30.6 °F 67% 29.93 in 10.0 mi SW 13.8 mph - N/A   Clear
9:15 PM 40.5 °F 33.2 °F 30.6 °F 68% 29.94 in 10.0 mi SW 12.7 mph - N/A   Clear
9:32 PM 40.5 °F 32.8 °F 30.6 °F 68% 29.93 in 10.0 mi SW 13.8 mph - N/A   Clear
9:53 PM 39.2 °F 32.0 °F 30.7 °F 72% 29.92 in 10.0 mi SW 11.5 mph - N/A   Clear
10:14 PM 39.7 °F 31.9 °F 30.7 °F 70% 29.93 in 10.0 mi SW 13.8 mph - N/A   Clear
10:33 PM 39.0 °F 31.4 °F 30.7 °F 72% 29.92 in 10.0 mi SW 12.7 mph - N/A   Clear
10:53 PM 37.4 °F 29.3 °F 31.1 °F 78% 29.90 in 10.0 mi SW 12.7 mph - N/A   Clear
11:14 PM 37.0 °F 27.7 °F 31.1 °F 79% 29.89 in 10.0 mi SW 16.1 mph - N/A   Clear
11:34 PM 37.4 °F 29.8 °F 31.1 °F 78% 29.89 in 10.0 mi SSW 11.5 mph - N/A   Clear
11:53 PM 36.9 °F 30.1 °F 31.1 °F 80% 29.89 in 10.0 mi SSW 9.2 mph - N/A   Clear